Hourly Data Report for March 17, 2018

OTTAWA INTL A
ONTARIO

45°19'00.000" N
75°40'00.000" W
114.90 m
6106001
71628
YOW

Download Data

Hourly Data (March 2018)
Hourly Data Report for March 17, 2018
TIME
LST
Temp Definition
°C
Dew Point Definition
°C
Rel Hum Definition
%
Precip. Amount Definition
mm

Wind Dir Definition
10's deg

Wind Spd Definition
km/h
Visibility Definition
km
Stn Press Definition
kPa
Hmdx Definition


Wind Chill Definition


Weather Definition


00:00 -9.4 -18.3 49   24 14 24.1 99.56   -16 LegendNANA
01:00 -9.2 -17.4 52   23 14 24.1 99.53   -16 Clear
02:00 -9.2 -16.3 57   25 16 24.1 99.45   -16 LegendNANA
03:00 -9.5 -15.5 62   25 17 24.1 99.36   -17 LegendNANA
04:00 -10.1 -15.3 66   25 16 24.1 99.30   -17 Mainly Clear
05:00 -8.3 -14.9 59   28 16 24.1 99.28   -15 LegendNANA
06:00 -9.1 -14.8 64   31 14 24.1 99.27   -15 LegendNANA
07:00 -8.5 -15.3 58   30 21 24.1 99.34   -16 Clear
08:00 -8.0 -17.4 47   31 35 24.1 99.41   -18 LegendNANA
09:00 -8.9 -17.9 48   35 35 24.1 99.55   -19 LegendNANA
10:00 -9.2 -19.7 43   35 35 24.1 99.64   -19 Mainly Clear
11:00 -9.5 -20.8 40   35 33 24.1 99.72   -19 LegendNANA
12:00 -9.0 -19.0 45   35 28 24.1 99.79   -18 LegendNANA
13:00 -9.2 -19.6 43   35 21 24.1 99.81   -17 Mainly Clear
14:00 -8.5 -19.8 40   32 23 24.1 99.81   -17 LegendNANA
15:00 -8.1 -20.3 37   35 18 24.1 99.82   -15 LegendNANA
16:00 -7.8 -20.9 35   35 18 24.1 99.82   -15 Clear
17:00 -7.8 -21.5 33   35 16 24.1 99.83   -14 LegendNANA
18:00 -8.2 -22.4 31   35 17 24.1 99.87   -15 LegendNANA
19:00 -9.1 -21.7 36   35 12 24.1 99.92   -15 Clear
20:00 -9.9 -21.7 38   1 10 24.1 99.93   -15 LegendNANA
21:00 -10.4 -22.3 38   1 9 24.1 99.97   -15 LegendNANA
22:00 -10.7 -23.3 35   1 17 24.1 100.02   -18 Mainly Clear
23:00 -11.1 -24.1 34   34 10 24.1 100.05   -17 LegendNANA

Notes on Data Quality.

Legend

  • E = Estimated
  • M = Missing
  • NA = Not Available*
  • [empty] = Indicates an unobserved value
Date modified: